Find Starlink 34868

NORAD ID: 65648 Int'l Des: 2025-210 Owner: SPXS Country: US Constellation: starlink operational
LEOCIRCULAR

リアルタイム位置

3D地球を読み込み中...

Starlink 34868について

説明を読み込み中...

次回通過

Passes for default location (London). Set your location on the main map for personalized predictions.

高度履歴

Loading altitude history...

軌道要素

1 65648U 25210AC 26105.81232219 .00010076 00000-0 35189-3 0 9994
2 65648 53.1592 134.7147 0001353 93.5061 266.6094 15.30198315 33419
Epoch: Apr 15, 2026 • Age: 16 hours

現在のステータス

高度 477.4 km
速度 7.63 km/s
衛星直下点 36.88°N, 103.21°W
打ち上げ日 Sep 18, 2025
運用期間 0.5 years
タイプ internet

技術仕様

分類 Payload
質量 575.00 kg
乾燥質量 530.00 kg
総質量 575.00 kg
長さ 0.30 m
直径 4.10 m
スパン 29.00 m
形状 Box + pan
製造者 SPXS
バスタイプ Starlink V2MO
フェーズステータス In Orbit
所有者/国 SPXS/US

Most Searched